Location: D�derode
(51.8092°N, 10.1065°E)
Time: 23:18:23
(UTC+00:00)

Cosmos 1869 Rocket - Pass Details

Date: 21 April 2021
Orbit: 603 x 634 km, 82.5° (Epoch: 14 May)

Event Time Altitude Azimuth Distance (km) Brightness Sun altitude
Rises 22:52:19 0° 355° (N) 2,900 8.4 -25.8°
Reaches altitude 10° 22:54:45 10° 6° (N) 1,984 7.1 -25.8°
Maximum altitude 22:58:42 32° 70° (ENE) 1,049 4.8 -25.9°
Enters shadow 22:58:43 32° 70° (ENE) 1,049 4.8 -25.9°
